Location: Home
(42.5358°N, 72.7383°W)
Time: 19:43:57
(UTC-04:00)

YAOGAN 20A - Visible Passes

Search period start: 28 June 2022 00:00
Search period end: 08 July 2022 00:00
Orbit: 894 x 1285 km, 63.4° (Epoch: 28 June)

Date Brightness Start Highest point End Pass type
(mag) Time Alt. Az. Time Alt. Az. Time Alt. Az.
28 Jun 7.6 00:02:27 10° NNW 00:07:04 18° NNE 00:11:55 10° ENE visible
28 Jun 6.0 01:52:22 10° NNW 01:59:18 52° NE 02:06:50 10° ESE visible
28 Jun 5.7 03:43:08 10° NW 03:49:51 40° WSW 03:57:00 10° S visible
28 Jun 7.7 21:19:38 10° NW 21:22:48 14° NNW 21:26:04 10° NNE visible
28 Jun 7.7 23:13:01 10° NNW 23:16:37 14° NNE 23:20:22 10° NE visible
29 Jun 6.6 01:03:01 10° NNW 01:09:26 36° NE 01:16:21 10° ESE visible
29 Jun 5.3 02:53:19 10° NW 03:00:29 65° WSW 03:08:12 10° SSE visible
29 Jun 7.7 22:23:18 10° NNW 22:26:04 13° N 22:28:54 10° NNE visible
30 Jun 7.1 00:13:43 10° NNW 00:19:23 25° NNE 00:25:25 10° E visible
30 Jun 5.3 02:03:44 10° NW 02:10:58 83° NE 02:18:48 10° SE visible
30 Jun 6.4 03:55:30 10° WNW 04:00:58 23° WSW 04:06:17 11° SSW visible
30 Jun 7.7 21:32:54 10° NNW 21:35:27 12° N 21:38:05 10° NNE visible
30 Jun 7.4 23:24:23 10° NNW 23:29:07 19° NNE 23:34:06 10° ENE visible
01 Jul 5.9 01:14:18 10° NNW 01:21:18 55° NE 01:28:53 10° SE visible
01 Jul 5.8 03:05:09 10° NW 03:11:46 38° WSW 03:16:09 21° SSW visible
01 Jul 7.6 22:35:00 10° NNW 22:38:42 15° NNE 22:42:34 10° NE visible
02 Jul 6.5 00:24:57 10° NNW 00:31:27 37° NE 00:38:27 10° ESE visible
02 Jul 5.3 02:15:18 10° NW 02:22:26 61° WSW 02:26:36 29° S visible
02 Jul 7.0 04:09:56 10° W 04:11:52 11° WSW 04:13:35 10° WSW visible
02 Jul 7.6 21:45:18 10° NNW 21:48:09 13° N 21:51:04 10° NNE visible
02 Jul 7.0 23:35:39 10° NNW 23:41:25 26° NE 23:47:34 10° E visible
03 Jul 5.3 01:25:41 10° NW 01:32:56 87° NE 01:37:24 28° SE visible
03 Jul 6.5 03:17:37 10° WNW 03:22:52 21° WSW 03:24:24 20° SW visible
03 Jul 7.3 22:46:20 10° NNW 22:51:11 19° NNE 22:56:17 10° ENE visible
04 Jul 5.7 00:36:14 10° NNW 00:43:17 58° NE 00:48:26 22° ESE visible
04 Jul 5.9 02:27:11 10° NW 02:33:42 36° WSW 02:35:27 32° SW visible
04 Jul 7.5 21:56:56 10° NNW 22:00:46 15° NNE 22:04:46 10° NE visible
04 Jul 6.3 23:46:53 10° NNW 23:53:27 39° NE 23:59:38 13° ESE visible
05 Jul 5.4 01:37:17 10° NW 01:44:23 58° WSW 01:46:39 43° S visible
05 Jul 7.1 03:33:20 10° W 03:33:40 10° WSW 03:33:40 10° WSW visible
05 Jul 7.5 21:07:18 10° NNW 21:10:14 13° N 21:13:15 10° NE visible
05 Jul 6.8 22:57:35 10° NNW 23:03:26 27° NE 23:09:42 10° E visible
06 Jul 5.2 00:47:39 10° NW 00:54:54 89° SW 00:57:59 41° SSE visible
06 Jul 6.6 02:39:45 10° WNW 02:44:47 20° WSW 02:45:01 20° WSW visible
06 Jul 7.2 22:08:16 10° NNW 22:13:14 20° NNE 22:18:29 10° ENE visible
06 Jul 5.6 23:58:11 10° NNW 00:05:15 61° NE 00:09:25 28° ESE visible
07 Jul 6.0 01:49:12 10° NW 01:55:38 34° WSW 01:56:28 33° SW visible
07 Jul 7.4 21:18:53 10° NNW 21:22:50 16° NNE 21:26:58 10° NE visible
07 Jul 6.2 23:08:49 10° NNW 23:15:27 41° NE 23:20:57 17° ESE visible
